Location: Unspecified
(0.0000°N, 0.0000°E)
Time: 05:59:54
(UTC+00:00)

Hubble Space Telescope - Pass Details

Date: 18 October 2019
Orbit: 536 x 540 km, 28.5° (Epoch: 14 October)

Event Time Altitude Azimuth Distance (km) Brightness Sun altitude
Rises 04:49:51 0° 210° (SSW) 2,673 4.1 -13.7°
Reaches altitude 10° 04:53:13 10° 181° (S) 1,781 3.5 -12.8°
Maximum altitude 04:55:09 13° 153° (SSE) 1,599 3.7 -12.4°
Drops below altitude 10° 04:57:04 10° 125° (SE) 1,779 4.5 -11.9°
Sets 05:00:26 0° 96° (E) 2,667 6.6 -11.1°
